Naples, FL

2:18 AM EDT on July 25, 2017 (GMT -0400)
Naples Municipal

Weather History for KAPF - October, 2014

Change the Weather History Date:

Thursday, October 2, 2014

  Actual Average Record
Temperature  
Mean Temperature 84 °F 81 °F  
Max Temperature 89 °F 89 °F 93 °F (1977)
Min Temperature 78 °F 73 °F 58 °F (1976)
Degree Days  
Heating Degree Days 0 0  
Month to date heating degree days 0 0  
Since 1 July heating degree days 0 0  
Cooling Degree Days 19 16  
Month to date cooling degree days 38 32  
Year to date cooling degree days 3427 3209  
Growing Degree Days 34 (Base 50)    
Moisture  
Dew Point 76 °F    
Average Humidity 75    
Maximum Humidity 91    
Minimum Humidity 59    
Precipitation  
Precipitation 0.00 in 0.20 in 10.70 in (1951)
Month to date precipitation 0.04 0.42  
Year to date precipitation 47.97 44.63  
Snow  
Snow 0.00 in - - ()
Month to date snowfall 0.0  
Since 1 July snowfall 0.0  
Since 1 September snowfall 0.0  
Snow Depth 0.00 in    
Sea Level Pressure  
Sea Level Pressure 30.00 in    
Wind  
Wind Speed 4 mph (WNW)    
Max Wind Speed 13 mph    
Max Gust Speed 17 mph    
Visibility 10 miles    
Events      
T = Trace of Precipitation, MM = Missing Value Source: NWS Daily Summary

Daily Weather History Graph

Daily Weather History Graph

Search for Another Location

Airport or City:

Trip Planner

Search our weather history database for the weather conditions in past years. The results will help you decide how hot, cold, wet, or windy it might be!

Date:

Astronomy

Oct. 02, 2014 Rise Set
Actual Time 7:19 AM EDT 7:12 PM EDT
Civil Twilight 6:56 AM EDT 7:35 PM EDT
Nautical Twilight 6:30 AM EDT 8:02 PM EDT
Astronomical Twilight 6:03 AM EDT 8:29 PM EDT
Moon 2:48 PM EDT (10/2) 1:06 AM EDT (10/2)
Length of Visible Light 12h 38m
Length of Day
11h 52m
First Quarter, 60% of the Moon is Illuminated
Oct 2
First Quarter
Oct 8
Full
Oct 15
Last Quarter
Oct 23
New
Oct 30
First Quarter

Hourly Weather History & Observations

Time (EDT) Temp. Heat Index Dew Point Humidity Pressure Visibility Wind Dir Wind Speed Gust Speed Precip Events Conditions
12:53 AM 80.1 °F 85.4 °F 75.9 °F 87% 29.98 in 10.0 mi SE 3.5 mph - N/A   Clear
1:53 AM 81.0 °F 87.3 °F 75.9 °F 85% 29.96 in 10.0 mi Calm Calm - N/A   Clear
2:53 AM 79.0 °F - 75.9 °F 90% 29.96 in 10.0 mi Calm Calm - N/A   Clear
3:53 AM 80.1 °F 85.4 °F 75.9 °F 87% 29.95 in 10.0 mi Calm Calm - N/A   Clear
4:53 AM 79.0 °F - 75.9 °F 90% 29.95 in 10.0 mi Calm Calm - N/A   Clear
5:53 AM 79.0 °F - 75.9 °F 90% 29.96 in 10.0 mi Calm Calm - N/A   Clear
6:53 AM 79.0 °F - 75.9 °F 90% 29.99 in 10.0 mi Calm Calm - N/A   Clear
7:53 AM 82.9 °F 90.8 °F 75.9 °F 79% 29.90 in 10.0 mi WSW 8.1 mph - N/A   Partly Cloudy
8:53 AM 82.0 °F 90.2 °F 77.0 °F 85% 30.03 in 10.0 mi Calm Calm - N/A   Mostly Cloudy
9:53 AM 87.1 °F 97.3 °F 75.9 °F 69% 30.04 in 10.0 mi Calm Calm - N/A   Scattered Clouds
10:00 AM 86.0 °F 96.0 °F 75.9 °F 72% 30.04 in 10.0 mi WNW 6.9 mph - N/A   Mostly Cloudy
10:12 AM 84.0 °F 92.6 °F 75.9 °F 76% 30.04 in 10.0 mi WNW 3.5 mph - N/A   Scattered Clouds
10:53 AM 87.1 °F 97.3 °F 75.9 °F 69% 30.04 in 10.0 mi NW 6.9 mph - N/A   Clear
11:53 AM 88.0 °F 98.5 °F 75.9 °F 67% 30.04 in 10.0 mi WNW 8.1 mph - N/A   Scattered Clouds
12:53 PM 88.0 °F 98.5 °F 75.9 °F 67% 30.03 in 10.0 mi Variable 6.9 mph - N/A   Partly Cloudy
1:53 PM 88.0 °F 97.5 °F 75.0 °F 65% 30.02 in 10.0 mi West 8.1 mph - N/A   Scattered Clouds
2:53 PM 88.0 °F 98.5 °F 75.9 °F 67% 30.00 in 10.0 mi West 9.2 mph - N/A   Clear
3:53 PM 88.0 °F 98.5 °F 75.9 °F 67% 29.98 in 10.0 mi WNW 9.2 mph - N/A   Clear
4:53 PM 87.1 °F 97.3 °F 75.9 °F 69% 29.98 in 10.0 mi West 9.2 mph - N/A   Unknown
5:53 PM 87.1 °F 93.6 °F 72.0 °F 61% 29.98 in 10.0 mi West 12.7 mph - N/A   Partly Cloudy
6:53 PM 84.9 °F 93.3 °F 75.0 °F 72% 29.99 in 10.0 mi WNW 6.9 mph - N/A   Partly Cloudy
7:53 PM 84.0 °F 91.9 °F 75.0 °F 74% 30.01 in 10.0 mi WNW 6.9 mph - N/A   Clear
8:53 PM 82.9 °F 90.2 °F 75.0 °F 77% 30.02 in 10.0 mi WNW 5.8 mph - N/A   Clear
9:53 PM 82.9 °F 89.4 °F 73.9 °F 74% 30.02 in 10.0 mi NW 4.6 mph - N/A   Clear
10:53 PM 82.9 °F 90.2 °F 75.0 °F 77% 30.03 in 10.0 mi WNW 3.5 mph - N/A   Clear
11:53 PM 82.9 °F 90.8 °F 75.9 °F 79% 30.02 in 10.0 mi NNW 3.5 mph - N/A   Clear